GEFSSGP_prec_meanprecacc_072.txt.gz
Total_Precipitation_Accumulation
0.00 0.03 0.10 0.14 0.18 0.35 0.48 0.29 0.09 0.02 0.01 0.00 0.00 0.00 0.00 0.00 0.03 0.08 0.01 0.00 0.00 0.00 0.00 0.01 0.00 0.01 0.02 0.01 0.01 0.01 0.00 0.01 0.01 0.02 0.02 0.02 0.02 0.01 0.01 0.01 0.01 0.01 0.01 0.01 0.01 0.01 0.01 0.01 0.01
0.01 0.03 0.10 0.09 0.20 0.51 0.48 0.65 0.13 0.03 0.01 0.00 0.00 0.00 0.00 0.00 0.00 0.00 0.00 0.00 0.00 0.00 0.00 0.00 0.01 0.01 0.01 0.01 0.01 0.02 0.01 0.01 0.01 0.05 0.06 0.05 0.02 0.01 0.01 0.01 0.01 0.01 0.01 0.01 0.01 0.01 0.00 0.01 0.01
0.00 0.02 0.07 0.06 0.15 0.32 0.22 0.32 0.09 0.03 0.01 0.00 0.00 0.00 0.00 0.00 0.00 0.00 0.00 0.00 0.00 0.00 0.00 0.00 0.01 0.01 0.01 0.01 0.02 0.04 0.02 0.01 0.03 0.09 0.10 0.07 0.03 0.03 0.03 0.02 0.01 0.01 0.02 0.01 0.01 0.01 0.01 0.00 0.01
0.00 0.00 0.02 0.04 0.09 0.20 0.22 0.14 0.05 0.03 0.01 0.00 0.00 0.00 0.00 0.00 0.00 0.00 0.00 0.00 0.00 0.00 0.00 0.00 0.01 0.01 0.01 0.01 0.01 0.05 0.06 0.04 0.05 0.08 0.09 0.08 0.06 0.08 0.07 0.03 0.02 0.02 0.03 0.02 0.01 0.01 0.01 0.01 0.01
0.00 0.00 0.00 0.03 0.10 0.20 0.23 0.15 0.08 0.03 0.01 0.00 0.00 0.00 0.00 0.00 0.00 0.00 0.00 0.00 0.00 0.00 0.00 0.00 0.01 0.01 0.01 0.00 0.01 0.02 0.05 0.06 0.07 0.08 0.07 0.05 0.03 0.04 0.03 0.02 0.02 0.02 0.02 0.01 0.01 0.01 0.02 0.01 0.01
0.00 0.00 0.01 0.03 0.08 0.16 0.18 0.12 0.09 0.06 0.02 0.01 0.01 0.02 0.00 0.00 0.00 0.00 0.00 0.00 0.00 0.00 0.00 0.00 0.01 0.01 0.01 0.00 0.00 0.01 0.01 0.02 0.02 0.02 0.02 0.02 0.01 0.03 0.04 0.03 0.02 0.02 0.02 0.02 0.02 0.02 0.03 0.03 0.03
0.00 0.00 0.00 0.01 0.05 0.13 0.15 0.10 0.09 0.05 0.03 0.03 0.02 0.02 0.01 0.01 0.00 0.00 0.00 0.00 0.00 0.00 0.00 0.00 0.01 0.01 0.01 0.01 0.01 0.01 0.01 0.01 0.01 0.01 0.01 0.01 0.01 0.02 0.04 0.06 0.06 0.06 0.06 0.07 0.06 0.04 0.03 0.04 0.04
0.00 0.00 0.00 0.00 0.02 0.08 0.09 0.10 0.07 0.05 0.04 0.02 0.01 0.03 0.05 0.03 0.00 0.00 0.00 0.00 0.00 0.00 0.00 0.01 0.01 0.01 0.01 0.01 0.01 0.01 0.01 0.01 0.01 0.02 0.02 0.02 0.01 0.02 0.06 0.08 0.09 0.12 0.15 0.16 0.12 0.09 0.08 0.07 0.06
0.00 0.00 0.00 0.00 0.01 0.02 0.03 0.06 0.05 0.04 0.03 0.02 0.01 0.02 0.04 0.02 0.01 0.00 0.00 0.00 0.00 0.01 0.01 0.01 0.02 0.02 0.01 0.01 0.01 0.01 0.02 0.02 0.02 0.03 0.03 0.04 0.04 0.07 0.15 0.19 0.26 0.27 0.29 0.29 0.24 0.22 0.21 0.20 0.13
0.00 0.00 0.00 0.00 0.00 0.01 0.02 0.04 0.04 0.03 0.03 0.03 0.06 0.07 0.08 0.03 0.00 0.00 0.00 0.00 0.00 0.01 0.01 0.02 0.02 0.02 0.02 0.01 0.03 0.04 0.04 0.08 0.07 0.10 0.16 0.20 0.27 0.23 0.12 0.20 0.40 0.52 0.58 0.54 0.53 0.55 0.44 0.37 0.31
0.00 0.00 0.00 0.00 0.00 0.00 0.00 0.02 0.03 0.03 0.05 0.12 0.20 0.25 0.13 0.03 0.01 0.00 0.00 0.00 0.01 0.01 0.01 0.01 0.02 0.03 0.03 0.03 0.03 0.05 0.06 0.14 0.14 0.16 0.27 0.34 0.34 0.23 0.14 0.18 0.35 0.54 0.64 0.54 0.74 0.83 0.58 0.62 0.73
0.00 0.00 0.00 0.00 0.00 0.00 0.00 0.00 0.01 0.02 0.05 0.11 0.16 0.15 0.09 0.06 0.06 0.03 0.01 0.01 0.01 0.02 0.02 0.02 0.02 0.04 0.05 0.05 0.05 0.05 0.07 0.11 0.13 0.22 0.27 0.37 0.42 0.33 0.30 0.34 0.39 0.52 0.61 0.77 0.84 0.95 0.91 0.91 0.84
0.00 0.00 0.00 0.00 0.00 0.00 0.00 0.00 0.03 0.05 0.06 0.09 0.13 0.08 0.03 0.03 0.05 0.05 0.05 0.06 0.05 0.06 0.07 0.07 0.05 0.07 0.09 0.11 0.12 0.11 0.14 0.16 0.21 0.30 0.33 0.37 0.48 0.47 0.52 0.49 0.49 0.50 0.63 0.76 0.85 0.91 1.13 1.28 1.09
0.00 0.00 0.00 0.00 0.00 0.00 0.00 0.00 0.00 0.02 0.06 0.10 0.11 0.07 0.04 0.03 0.03 0.04 0.06 0.10 0.11 0.13 0.18 0.20 0.21 0.25 0.27 0.29 0.31 0.33 0.33 0.36 0.37 0.38 0.43 0.49 0.59 0.69 0.71 0.68 0.70 0.65 0.68 0.81 1.00 1.11 1.41 1.40 1.30
0.00 0.00 0.00 0.00 0.00 0.00 0.00 0.00 0.00 0.01 0.05 0.09 0.14 0.18 0.14 0.09 0.10 0.12 0.14 0.17 0.20 0.27 0.37 0.44 0.51 0.58 0.62 0.63 0.67 0.70 0.65 0.62 0.65 0.69 0.73 0.74 0.79 0.89 0.92 0.83 0.82 0.92 1.03 1.14 1.17 1.28 1.50 1.26 1.26
0.00 0.00 0.00 0.00 0.00 0.00 0.00 0.00 0.01 0.03 0.04 0.07 0.09 0.12 0.17 0.16 0.18 0.21 0.24 0.33 0.42 0.52 0.62 0.79 0.92 0.97 1.01 1.08 1.13 1.17 1.11 1.07 1.05 1.03 1.06 1.00 1.00 1.05 1.19 1.08 1.02 1.35 1.40 1.40 1.51 1.60 1.58 1.45 1.40
0.00 0.00 0.00 0.00 0.00 0.00 0.00 0.01 0.02 0.06 0.07 0.09 0.07 0.07 0.16 0.27 0.33 0.38 0.45 0.58 0.77 0.96 1.15 1.39 1.52 1.50 1.48 1.57 1.63 1.64 1.53 1.41 1.31 1.23 1.19 1.14 1.20 1.28 1.48 1.40 1.46 1.71 1.72 1.66 1.60 1.80 1.75 1.55 1.49
0.00 0.00 0.01 0.01 0.01 0.00 0.00 0.01 0.02 0.03 0.05 0.07 0.08 0.15 0.27 0.39 0.63 0.76 0.79 0.87 1.07 1.41 1.74 1.84 1.96 2.19 2.22 2.23 2.11 1.89 1.58 1.40 1.37 1.36 1.28 1.28 1.37 1.51 1.76 1.60 1.61 1.81 1.87 1.78 1.70 1.61 1.63 1.44 1.40
0.00 0.00 0.01 0.01 0.00 0.00 0.00 0.00 0.02 0.02 0.03 0.06 0.09 0.18 0.27 0.39 0.56 0.72 0.93 1.16 1.36 1.60 1.89 2.18 2.43 2.60 2.51 2.31 2.09 1.93 1.80 1.73 1.56 1.47 1.42 1.38 1.38 1.49 1.74 1.65 1.73 1.78 1.71 1.63 1.65 1.61 1.45 1.17 1.32
0.00 0.00 0.01 0.01 0.00 0.00 0.00 0.01 0.04 0.04 0.05 0.08 0.12 0.18 0.33 0.54 0.65 0.90 1.09 1.16 1.33 1.61 2.00 2.26 2.57 2.68 2.49 2.23 2.07 1.99 1.97 1.71 1.50 1.50 1.49 1.49 1.55 1.56 1.64 1.66 1.67 1.69 1.66 1.48 1.40 1.46 1.27 1.03 1.16
0.00 0.01 0.02 0.03 0.02 0.01 0.01 0.07 0.12 0.09 0.09 0.14 0.21 0.31 0.46 0.76 1.09 1.24 1.16 1.18 1.30 1.49 1.71 1.90 2.01 1.99 1.89 1.87 1.92 1.94 1.94 1.71 1.66 1.74 1.79 1.76 1.77 1.74 1.73 1.68 1.57 1.42 1.36 1.23 1.21 1.29 1.24 1.06 1.03
0.02 0.01 0.00 0.01 0.01 0.03 0.04 0.16 0.34 0.31 0.21 0.27 0.37 0.42 0.73 1.00 0.98 1.02 1.11 1.20 1.32 1.44 1.62 1.77 1.76 1.62 1.51 1.56 1.74 1.82 1.79 1.75 1.90 2.13 2.06 1.83 1.68 1.54 1.38 1.27 1.23 1.17 1.12 1.01 0.96 1.02 1.02 0.95 0.88
0.01 0.01 0.00 0.00 0.01 0.03 0.05 0.17 0.39 0.40 0.42 0.39 0.41 0.60 0.91 0.89 0.78 0.82 0.96 1.06 1.10 1.23 1.31 1.47 1.55 1.47 1.44 1.45 1.52 1.63 1.67 1.67 1.68 1.68 1.63 1.52 1.37 1.18 1.01 0.93 0.91 0.88 0.88 0.82 0.76 0.76 0.75 0.77 0.77
0.00 0.00 0.01 0.04 0.06 0.11 0.16 0.19 0.36 0.50 0.47 0.35 0.41 0.57 0.75 0.75 0.72 0.77 0.80 0.85 0.92 1.00 1.01 0.99 1.07 1.15 1.21 1.25 1.28 1.29 1.26 1.23 1.18 1.11 1.08 1.03 0.95 0.78 0.67 0.63 0.65 0.70 0.75 0.72 0.69 0.68 0.67 0.70 0.78
0.01 0.01 0.15 0.35 0.35 0.34 0.23 0.24 0.43 0.41 0.38 0.41 0.49 0.55 0.53 0.53 0.56 0.66 0.67 0.69 0.75 0.80 0.78 0.78 0.83 0.94 0.95 0.91 0.94 0.95 0.93 0.89 0.83 0.83 0.81 0.78 0.72 0.61 0.55 0.53 0.55 0.62 0.69 0.65 0.61 0.60 0.68 0.78 0.83
0.02 0.03 0.12 0.24 0.21 0.24 0.21 0.39 0.59 0.42 0.43 0.52 0.52 0.48 0.43 0.43 0.44 0.54 0.62 0.65 0.64 0.63 0.64 0.66 0.69 0.72 0.70 0.67 0.68 0.69 0.72 0.70 0.67 0.67 0.60 0.57 0.58 0.58 0.57 0.52 0.52 0.54 0.58 0.58 0.60 0.60 0.66 0.76 0.81
0.04 0.03 0.05 0.13 0.10 0.09 0.21 0.48 0.51 0.35 0.37 0.47 0.47 0.44 0.46 0.47 0.44 0.44 0.45 0.48 0.48 0.46 0.46 0.51 0.60 0.64 0.66 0.65 0.63 0.58 0.58 0.56 0.52 0.48 0.46 0.45 0.47 0.50 0.56 0.56 0.57 0.58 0.62 0.64 0.70 0.75 0.83 0.96 1.02
0.05 0.04 0.07 0.09 0.09 0.10 0.15 0.39 0.54 0.44 0.39 0.29 0.24 0.19 0.20 0.22 0.23 0.21 0.22 0.23 0.24 0.27 0.34 0.41 0.45 0.46 0.49 0.51 0.53 0.53 0.49 0.43 0.38 0.35 0.35 0.35 0.37 0.41 0.49 0.56 0.57 0.59 0.59 0.63 0.73 0.92 1.08 1.17 1.21
0.06 0.05 0.05 0.05 0.06 0.10 0.15 0.30 0.28 0.30 0.27 0.23 0.19 0.13 0.12 0.10 0.12 0.16 0.17 0.21 0.23 0.27 0.34 0.42 0.44 0.44 0.46 0.45 0.45 0.45 0.43 0.40 0.35 0.30 0.29 0.30 0.33 0.36 0.39 0.45 0.50 0.52 0.55 0.58 0.67 0.80 0.99 1.10 1.12
0.06 0.05 0.04 0.07 0.06 0.07 0.12 0.21 0.14 0.18 0.18 0.17 0.17 0.14 0.14 0.15 0.15 0.17 0.17 0.23 0.28 0.28 0.29 0.35 0.39 0.44 0.53 0.61 0.69 0.70 0.62 0.53 0.44 0.35 0.30 0.29 0.32 0.35 0.36 0.36 0.39 0.40 0.44 0.49 0.59 0.72 0.83 0.92 0.95

GEFSSGP_prec_meanprecacc_078.txt.gz
Total_Precipitation_Accumulation
0.00 0.03 0.13 0.20 0.26 0.47 0.63 0.40 0.18 0.06 0.03 0.03 0.03 0.01 0.01 0.01 0.03 0.09 0.01 0.00 0.00 0.00 0.00 0.01 0.00 0.01 0.02 0.02 0.01 0.01 0.01 0.01 0.01 0.02 0.02 0.02 0.02 0.01 0.01 0.01 0.01 0.01 0.01 0.01 0.01 0.01 0.01 0.01 0.01
0.01 0.04 0.12 0.14 0.31 0.74 0.59 0.69 0.16 0.06 0.02 0.03 0.03 0.03 0.01 0.01 0.00 0.01 0.00 0.00 0.00 0.00 0.00 0.00 0.01 0.01 0.01 0.01 0.01 0.02 0.01 0.01 0.02 0.05 0.06 0.05 0.02 0.01 0.01 0.01 0.01 0.01 0.01 0.01 0.01 0.01 0.01 0.01 0.01
0.00 0.03 0.08 0.10 0.28 0.52 0.32 0.35 0.10 0.04 0.02 0.02 0.04 0.04 0.01 0.03 0.02 0.01 0.00 0.00 0.00 0.00 0.00 0.00 0.01 0.01 0.01 0.01 0.02 0.04 0.02 0.01 0.03 0.09 0.10 0.08 0.03 0.03 0.04 0.02 0.01 0.01 0.02 0.01 0.01 0.01 0.01 0.01 0.01
0.00 0.01 0.03 0.06 0.15 0.27 0.26 0.16 0.06 0.03 0.02 0.01 0.02 0.02 0.02 0.01 0.01 0.00 0.00 0.00 0.00 0.00 0.00 0.00 0.01 0.01 0.01 0.01 0.01 0.05 0.07 0.04 0.06 0.09 0.09 0.08 0.06 0.09 0.07 0.03 0.02 0.02 0.03 0.02 0.01 0.01 0.01 0.01 0.01
0.00 0.01 0.01 0.04 0.12 0.22 0.24 0.16 0.09 0.04 0.02 0.01 0.01 0.01 0.01 0.01 0.01 0.00 0.00 0.00 0.00 0.00 0.00 0.00 0.01 0.01 0.01 0.01 0.01 0.02 0.05 0.06 0.08 0.09 0.07 0.05 0.04 0.04 0.04 0.02 0.02 0.02 0.02 0.02 0.01 0.02 0.02 0.01 0.01
0.00 0.01 0.01 0.04 0.09 0.16 0.18 0.12 0.10 0.06 0.03 0.02 0.01 0.04 0.03 0.01 0.00 0.00 0.01 0.00 0.00 0.00 0.00 0.00 0.01 0.01 0.01 0.01 0.01 0.01 0.01 0.02 0.02 0.03 0.03 0.02 0.02 0.03 0.04 0.04 0.03 0.02 0.02 0.03 0.02 0.02 0.03 0.03 0.03
0.00 0.01 0.01 0.02 0.05 0.13 0.16 0.11 0.09 0.06 0.04 0.03 0.03 0.06 0.04 0.01 0.01 0.01 0.01 0.01 0.02 0.00 0.00 0.00 0.01 0.01 0.01 0.01 0.01 0.01 0.01 0.01 0.01 0.01 0.02 0.02 0.02 0.03 0.04 0.06 0.06 0.06 0.06 0.07 0.06 0.04 0.04 0.04 0.04
0.00 0.00 0.00 0.01 0.03 0.08 0.09 0.10 0.07 0.06 0.04 0.03 0.03 0.06 0.08 0.05 0.01 0.01 0.05 0.07 0.03 0.01 0.00 0.01 0.01 0.01 0.01 0.01 0.01 0.01 0.01 0.01 0.01 0.02 0.02 0.02 0.02 0.03 0.06 0.09 0.09 0.12 0.15 0.16 0.12 0.09 0.08 0.07 0.06
0.00 0.00 0.00 0.00 0.01 0.02 0.03 0.06 0.05 0.04 0.04 0.03 0.04 0.06 0.09 0.06 0.03 0.02 0.09 0.12 0.04 0.02 0.01 0.01 0.02 0.02 0.01 0.01 0.01 0.02 0.02 0.02 0.02 0.04 0.04 0.04 0.04 0.08 0.15 0.19 0.27 0.28 0.30 0.29 0.25 0.22 0.22 0.21 0.13
0.00 0.00 0.00 0.00 0.00 0.01 0.02 0.04 0.04 0.03 0.04 0.07 0.15 0.15 0.17 0.11 0.08 0.06 0.07 0.07 0.05 0.03 0.02 0.02 0.02 0.03 0.02 0.02 0.03 0.04 0.05 0.09 0.08 0.16 0.22 0.22 0.29 0.24 0.12 0.21 0.43 0.57 0.64 0.59 0.57 0.58 0.47 0.38 0.32
0.00 0.00 0.00 0.00 0.00 0.00 0.00 0.02 0.03 0.03 0.07 0.17 0.32 0.31 0.22 0.16 0.11 0.10 0.09 0.05 0.06 0.05 0.04 0.03 0.04 0.04 0.04 0.05 0.05 0.06 0.09 0.20 0.25 0.27 0.34 0.39 0.41 0.27 0.16 0.21 0.40 0.63 0.74 0.63 0.83 0.93 0.65 0.67 0.77
0.00 0.00 0.00 0.00 0.00 0.00 0.00 0.00 0.02 0.03 0.06 0.14 0.22 0.25 0.23 0.19 0.20 0.21 0.14 0.12 0.12 0.09 0.06 0.06 0.07 0.07 0.08 0.09 0.10 0.10 0.11 0.18 0.23 0.30 0.35 0.47 0.53 0.43 0.38 0.41 0.48 0.63 0.74 0.91 0.98 1.08 1.02 1.00 0.90
0.00 0.00 0.00 0.00 0.00 0.00 0.00 0.00 0.03 0.05 0.06 0.10 0.16 0.15 0.19 0.17 0.16 0.21 0.24 0.30 0.26 0.19 0.16 0.15 0.16 0.15 0.16 0.19 0.21 0.20 0.22 0.25 0.30 0.40 0.48 0.53 0.67 0.71 0.73 0.61 0.61 0.64 0.78 0.93 1.05 1.11 1.34 1.47 1.24
0.00 0.00 0.00 0.00 0.00 0.00 0.00 0.00 0.01 0.03 0.08 0.13 0.14 0.15 0.17 0.16 0.17 0.26 0.38 0.47 0.39 0.31 0.33 0.33 0.35 0.40 0.41 0.45 0.46 0.48 0.45 0.46 0.47 0.47 0.53 0.62 0.76 0.88 0.89 0.81 0.83 0.80 0.85 1.01 1.22 1.38 1.68 1.66 1.53
0.00 0.00 0.00 0.00 0.00 0.00 0.00 0.00 0.01 0.04 0.10 0.14 0.18 0.24 0.25 0.24 0.27 0.38 0.49 0.51 0.49 0.50 0.55 0.61 0.72 0.81 0.82 0.81 0.83 0.84 0.77 0.73 0.75 0.79 0.83 0.85 0.91 1.02 1.03 0.92 0.91 1.02 1.19 1.34 1.39 1.55 1.79 1.50 1.45
0.00 0.00 0.00 0.00 0.00 0.00 0.00 0.01 0.03 0.07 0.08 0.12 0.14 0.17 0.27 0.28 0.30 0.37 0.47 0.55 0.64 0.73 0.84 1.01 1.17 1.20 1.19 1.23 1.27 1.30 1.24 1.17 1.13 1.11 1.14 1.08 1.08 1.15 1.29 1.15 1.09 1.45 1.55 1.59 1.71 1.83 1.81 1.65 1.58
0.00 0.00 0.00 0.00 0.01 0.00 0.01 0.03 0.06 0.14 0.13 0.14 0.13 0.14 0.23 0.33 0.40 0.47 0.56 0.72 0.93 1.15 1.35 1.61 1.75 1.73 1.64 1.68 1.72 1.72 1.61 1.48 1.37 1.28 1.25 1.20 1.25 1.34 1.53 1.45 1.52 1.81 1.87 1.83 1.78 2.00 1.98 1.79 1.70
0.00 0.00 0.01 0.02 0.02 0.01 0.03 0.07 0.09 0.13 0.14 0.16 0.18 0.24 0.33 0.43 0.67 0.81 0.86 0.95 1.17 1.54 1.87 1.97 2.10 2.35 2.32 2.30 2.18 1.94 1.62 1.43 1.41 1.40 1.31 1.31 1.40 1.54 1.79 1.64 1.65 1.86 1.95 1.88 1.83 1.78 1.84 1.65 1.60
0.01 0.01 0.03 0.04 0.02 0.03 0.08 0.16 0.23 0.29 0.25 0.25 0.21 0.25 0.31 0.41 0.58 0.75 0.96 1.19 1.42 1.67 1.96 2.24 2.49 2.67 2.56 2.35 2.13 1.96 1.82 1.75 1.58 1.49 1.44 1.39 1.39 1.50 1.76 1.67 1.77 1.83 1.77 1.74 1.80 1.79 1.63 1.34 1.52
0.02 0.03 0.04 0.07 0.04 0.05 0.12 0.22 0.34 0.33 0.32 0.33 0.25 0.24 0.35 0.56 0.66 0.91 1.10 1.17 1.35 1.63 2.02 2.28 2.59 2.70 2.51 2.24 2.08 2.00 1.97 1.72 1.50 1.51 1.50 1.50 1.56 1.57 1.65 1.69 1.70 1.74 1.72 1.61 1.57 1.65 1.49 1.24 1.37
0.03 0.02 0.04 0.05 0.06 0.11 0.14 0.32 0.51 0.40 0.38 0.37 0.35 0.38 0.49 0.77 1.10 1.24 1.16 1.18 1.30 1.49 1.72 1.92 2.02 2.00 1.90 1.87 1.92 1.94 1.95 1.72 1.66 1.74 1.79 1.77 1.78 1.74 1.74 1.69 1.58 1.46 1.42 1.33 1.34 1.45 1.42 1.26 1.23
0.04 0.02 0.02 0.03 0.04 0.11 0.14 0.37 0.70 0.59 0.42 0.45 0.48 0.48 0.77 1.02 0.98 1.02 1.11 1.20 1.32 1.45 1.62 1.78 1.77 1.62 1.51 1.56 1.74 1.82 1.79 1.75 1.90 2.13 2.06 1.84 1.68 1.54 1.39 1.27 1.25 1.19 1.20 1.10 1.05 1.15 1.18 1.11 1.05
0.02 0.02 0.02 0.02 0.03 0.07 0.12 0.31 0.69 0.69 0.67 0.56 0.50 0.65 0.94 0.91 0.79 0.83 0.96 1.06 1.10 1.23 1.31 1.47 1.55 1.47 1.44 1.45 1.52 1.63 1.67 1.67 1.68 1.68 1.63 1.52 1.37 1.18 1.02 0.93 0.92 0.90 0.91 0.86 0.83 0.84 0.86 0.89 0.90
0.02 0.02 0.04 0.07 0.08 0.16 0.20 0.28 0.58 0.76 0.64 0.49 0.51 0.62 0.78 0.77 0.73 0.77 0.81 0.85 0.92 1.00 1.01 0.99 1.07 1.15 1.21 1.25 1.28 1.30 1.27 1.23 1.18 1.11 1.08 1.03 0.95 0.79 0.67 0.64 0.66 0.71 0.77 0.75 0.73 0.75 0.75 0.80 0.89
0.02 0.03 0.18 0.38 0.39 0.43 0.28 0.39 0.79 0.71 0.53 0.52 0.60 0.60 0.56 0.55 0.56 0.66 0.67 0.69 0.75 0.80 0.78 0.78 0.83 0.94 0.95 0.91 0.94 0.95 0.93 0.89 0.83 0.83 0.81 0.78 0.72 0.62 0.55 0.53 0.56 0.63 0.69 0.66 0.63 0.63 0.73 0.85 0.92
0.03 0.04 0.15 0.27 0.28 0.36 0.33 0.65 1.09 0.75 0.56 0.59 0.57 0.51 0.45 0.45 0.45 0.54 0.62 0.65 0.65 0.63 0.64 0.66 0.69 0.72 0.70 0.67 0.68 0.69 0.72 0.71 0.67 0.67 0.60 0.57 0.58 0.58 0.57 0.52 0.53 0.54 0.59 0.58 0.61 0.61 0.68 0.79 0.86
0.04 0.03 0.06 0.16 0.15 0.19 0.36 0.65 0.75 0.51 0.45 0.51 0.50 0.46 0.47 0.47 0.44 0.44 0.45 0.49 0.48 0.46 0.46 0.51 0.60 0.64 0.66 0.65 0.63 0.59 0.59 0.56 0.52 0.48 0.46 0.45 0.47 0.50 0.57 0.56 0.57 0.59 0.63 0.65 0.71 0.76 0.84 0.98 1.04
0.06 0.05 0.09 0.11 0.12 0.16 0.26 0.53 0.65 0.50 0.42 0.32 0.27 0.21 0.21 0.22 0.23 0.22 0.22 0.23 0.24 0.27 0.34 0.41 0.45 0.46 0.49 0.51 0.53 0.53 0.49 0.44 0.38 0.35 0.36 0.35 0.37 0.41 0.49 0.56 0.57 0.59 0.60 0.64 0.74 0.93 1.09 1.18 1.23
0.06 0.05 0.06 0.05 0.07 0.12 0.20 0.38 0.31 0.32 0.29 0.26 0.20 0.14 0.13 0.11 0.12 0.16 0.18 0.21 0.23 0.27 0.34 0.42 0.44 0.44 0.46 0.45 0.45 0.45 0.43 0.40 0.35 0.30 0.29 0.30 0.33 0.36 0.40 0.46 0.50 0.53 0.56 0.59 0.68 0.82 1.00 1.11 1.14
0.06 0.05 0.04 0.07 0.06 0.08 0.13 0.24 0.15 0.18 0.18 0.17 0.17 0.14 0.14 0.15 0.15 0.17 0.17 0.23 0.28 0.28 0.29 0.35 0.39 0.44 0.53 0.61 0.69 0.70 0.62 0.53 0.44 0.35 0.30 0.29 0.32 0.35 0.36 0.37 0.39 0.41 0.45 0.51 0.61 0.74 0.85 0.93 0.96

GEFSSGP_prec_meanprecacc_084.txt.gz
Total_Precipitation_Accumulation
0.01 0.03 0.14 0.21 0.27 0.48 0.64 0.40 0.18 0.07 0.04 0.04 0.05 0.03 0.03 0.02 0.05 0.10 0.01 0.00 0.00 0.00 0.00 0.01 0.00 0.01 0.02 0.02 0.01 0.01 0.01 0.01 0.01 0.02 0.02 0.02 0.02 0.01 0.01 0.01 0.01 0.01 0.01 0.01 0.01 0.01 0.01 0.01 0.01
0.01 0.04 0.13 0.15 0.33 0.74 0.60 0.69 0.16 0.07 0.03 0.04 0.05 0.03 0.02 0.01 0.01 0.01 0.00 0.01 0.00 0.00 0.00 0.00 0.01 0.01 0.01 0.01 0.01 0.02 0.01 0.01 0.02 0.05 0.06 0.05 0.02 0.01 0.01 0.01 0.01 0.01 0.01 0.01 0.01 0.01 0.01 0.01 0.01
0.00 0.03 0.09 0.11 0.29 0.53 0.32 0.35 0.10 0.05 0.03 0.04 0.06 0.05 0.02 0.04 0.02 0.01 0.01 0.01 0.00 0.00 0.00 0.00 0.01 0.01 0.01 0.01 0.02 0.04 0.02 0.01 0.03 0.09 0.10 0.08 0.03 0.03 0.04 0.02 0.01 0.01 0.02 0.01 0.01 0.01 0.01 0.01 0.01
0.00 0.01 0.04 0.06 0.16 0.28 0.26 0.16 0.07 0.04 0.03 0.02 0.03 0.03 0.02 0.02 0.01 0.01 0.01 0.01 0.00 0.00 0.00 0.00 0.01 0.01 0.01 0.01 0.02 0.05 0.07 0.04 0.06 0.09 0.10 0.08 0.06 0.09 0.08 0.03 0.02 0.03 0.03 0.02 0.01 0.01 0.01 0.01 0.01
0.00 0.01 0.02 0.05 0.13 0.23 0.25 0.16 0.10 0.05 0.02 0.02 0.02 0.02 0.01 0.01 0.01 0.01 0.01 0.00 0.00 0.00 0.00 0.01 0.01 0.01 0.01 0.01 0.01 0.02 0.05 0.06 0.08 0.09 0.08 0.06 0.04 0.04 0.04 0.03 0.02 0.02 0.02 0.02 0.02 0.02 0.02 0.01 0.01
0.01 0.01 0.02 0.05 0.10 0.16 0.18 0.12 0.10 0.07 0.04 0.03 0.02 0.04 0.03 0.01 0.02 0.02 0.01 0.00 0.00 0.00 0.00 0.01 0.02 0.01 0.01 0.01 0.01 0.01 0.02 0.02 0.03 0.03 0.03 0.03 0.02 0.04 0.05 0.04 0.03 0.03 0.03 0.03 0.03 0.02 0.03 0.03 0.03
0.01 0.01 0.02 0.03 0.06 0.13 0.16 0.11 0.09 0.07 0.04 0.05 0.04 0.07 0.05 0.02 0.02 0.01 0.02 0.02 0.02 0.01 0.00 0.01 0.02 0.02 0.02 0.01 0.01 0.01 0.02 0.02 0.02 0.03 0.03 0.03 0.02 0.03 0.05 0.07 0.07 0.07 0.07 0.07 0.06 0.04 0.04 0.04 0.05
0.01 0.01 0.01 0.02 0.03 0.08 0.09 0.10 0.08 0.07 0.06 0.04 0.03 0.07 0.09 0.06 0.02 0.02 0.06 0.08 0.05 0.02 0.01 0.02 0.02 0.02 0.02 0.01 0.02 0.02 0.02 0.03 0.03 0.03 0.03 0.03 0.03 0.04 0.07 0.09 0.10 0.13 0.16 0.17 0.13 0.10 0.09 0.08 0.06
0.01 0.00 0.00 0.00 0.01 0.02 0.03 0.06 0.06 0.05 0.05 0.05 0.05 0.07 0.10 0.07 0.04 0.03 0.10 0.13 0.05 0.03 0.02 0.02 0.03 0.03 0.02 0.02 0.02 0.03 0.04 0.04 0.04 0.05 0.05 0.06 0.05 0.09 0.16 0.20 0.28 0.29 0.33 0.33 0.29 0.26 0.24 0.23 0.15
0.00 0.00 0.00 0.00 0.00 0.01 0.02 0.05 0.05 0.04 0.05 0.09 0.16 0.15 0.18 0.12 0.10 0.08 0.09 0.10 0.07 0.04 0.03 0.02 0.03 0.04 0.04 0.03 0.05 0.07 0.08 0.11 0.10 0.18 0.24 0.24 0.31 0.26 0.14 0.24 0.47 0.63 0.74 0.71 0.68 0.68 0.56 0.46 0.36
0.00 0.00 0.00 0.00 0.00 0.00 0.00 0.02 0.05 0.06 0.09 0.18 0.33 0.32 0.23 0.17 0.14 0.14 0.13 0.09 0.10 0.09 0.06 0.05 0.05 0.07 0.08 0.10 0.10 0.11 0.17 0.27 0.28 0.29 0.37 0.42 0.44 0.30 0.20 0.24 0.45 0.71 0.86 0.77 1.00 1.11 0.82 0.82 0.88
0.00 0.00 0.00 0.00 0.00 0.00 0.00 0.00 0.02 0.06 0.10 0.15 0.23 0.25 0.24 0.22 0.25 0.26 0.22 0.26 0.21 0.16 0.12 0.11 0.15 0.17 0.23 0.25 0.18 0.16 0.23 0.27 0.29 0.36 0.41 0.52 0.58 0.48 0.45 0.47 0.55 0.72 0.87 1.07 1.17 1.28 1.21 1.20 1.09
0.00 0.00 0.00 0.00 0.00 0.00 0.00 0.01 0.03 0.06 0.08 0.11 0.17 0.17 0.20 0.21 0.22 0.27 0.34 0.52 0.46 0.37 0.32 0.32 0.37 0.34 0.39 0.36 0.35 0.36 0.42 0.43 0.44 0.52 0.58 0.62 0.77 0.81 0.85 0.74 0.76 0.80 0.96 1.14 1.26 1.33 1.59 1.72 1.48
0.00 0.00 0.00 0.00 0.00 0.00 0.01 0.01 0.02 0.05 0.09 0.14 0.15 0.17 0.21 0.21 0.24 0.39 0.52 0.63 0.56 0.52 0.57 0.57 0.58 0.65 0.68 0.74 0.79 0.81 0.70 0.66 0.64 0.62 0.66 0.76 0.90 1.02 1.06 0.99 1.01 0.96 0.99 1.16 1.37 1.54 1.88 1.91 1.79
0.00 0.00 0.00 0.00 0.00 0.00 0.01 0.02 0.03 0.06 0.13 0.16 0.21 0.27 0.30 0.29 0.34 0.48 0.62 0.65 0.66 0.71 0.78 0.86 1.02 1.17 1.22 1.19 1.23 1.20 1.07 1.00 0.96 0.95 0.99 0.99 1.05 1.15 1.18 1.06 1.03 1.11 1.26 1.42 1.48 1.67 1.96 1.69 1.67
0.00 0.00 0.00 0.00 0.00 0.00 0.01 0.03 0.07 0.12 0.13 0.16 0.18 0.21 0.32 0.34 0.37 0.46 0.59 0.69 0.81 0.92 1.06 1.31 1.49 1.55 1.55 1.59 1.66 1.60 1.48 1.39 1.30 1.25 1.25 1.17 1.16 1.22 1.36 1.22 1.15 1.50 1.61 1.67 1.81 1.95 1.94 1.79 1.74
0.00 0.00 0.00 0.01 0.01 0.01 0.02 0.05 0.10 0.19 0.20 0.21 0.20 0.20 0.30 0.42 0.49 0.58 0.69 0.86 1.06 1.32 1.54 1.84 2.03 2.01 1.91 1.97 2.01 1.96 1.79 1.61 1.48 1.36 1.31 1.25 1.30 1.39 1.58 1.51 1.59 1.88 1.94 1.91 1.86 2.08 2.06 1.89 1.81
0.00 0.01 0.01 0.03 0.02 0.02 0.05 0.09 0.14 0.19 0.24 0.25 0.28 0.34 0.43 0.55 0.78 0.92 0.96 1.04 1.27 1.66 2.01 2.13 2.28 2.54 2.49 2.45 2.32 2.06 1.72 1.52 1.49 1.46 1.34 1.34 1.43 1.57 1.82 1.67 1.68 1.90 1.99 1.92 1.88 1.84 1.91 1.74 1.72
0.01 0.02 0.04 0.05 0.03 0.05 0.10 0.19 0.28 0.38 0.40 0.38 0.32 0.35 0.41 0.52 0.67 0.81 1.02 1.26 1.49 1.74 2.04 2.34 2.60 2.77 2.66 2.42 2.19 2.01 1.86 1.80 1.62 1.52 1.45 1.41 1.41 1.51 1.77 1.68 1.78 1.83 1.78 1.75 1.81 1.81 1.67 1.40 1.61
0.02 0.04 0.05 0.08 0.06 0.07 0.15 0.26 0.40 0.42 0.46 0.46 0.35 0.32 0.42 0.63 0.71 0.95 1.14 1.21 1.38 1.66 2.06 2.33 2.64 2.75 2.55 2.28 2.10 2.02 1.99 1.73 1.52 1.52 1.50 1.51 1.56 1.57 1.65 1.69 1.70 1.74 1.73 1.61 1.58 1.66 1.50 1.27 1.43
0.03 0.03 0.05 0.06 0.07 0.12 0.16 0.35 0.56 0.47 0.48 0.48 0.44 0.45 0.56 0.82 1.14 1.27 1.18 1.20 1.31 1.50 1.74 1.93 2.04 2.02 1.91 1.88 1.93 1.94 1.95 1.72 1.67 1.75 1.79 1.77 1.78 1.74 1.74 1.69 1.58 1.46 1.42 1.33 1.34 1.45 1.44 1.29 1.29
0.05 0.03 0.03 0.03 0.05 0.13 0.16 0.38 0.73 0.63 0.49 0.53 0.56 0.55 0.82 1.05 1.00 1.03 1.12 1.21 1.33 1.45 1.62 1.78 1.77 1.62 1.51 1.56 1.74 1.82 1.79 1.75 1.90 2.13 2.06 1.84 1.68 1.54 1.39 1.27 1.25 1.20 1.20 1.10 1.05 1.16 1.19 1.12 1.08
0.03 0.02 0.02 0.03 0.04 0.08 0.12 0.31 0.70 0.72 0.70 0.60 0.56 0.71 0.98 0.94 0.80 0.83 0.97 1.07 1.11 1.23 1.31 1.47 1.55 1.47 1.44 1.45 1.52 1.63 1.67 1.67 1.68 1.68 1.63 1.52 1.37 1.18 1.02 0.93 0.92 0.90 0.91 0.87 0.83 0.85 0.87 0.91 0.92
0.02 0.03 0.05 0.07 0.08 0.16 0.21 0.28 0.58 0.77 0.65 0.50 0.54 0.66 0.81 0.78 0.74 0.78 0.81 0.85 0.92 1.00 1.01 0.99 1.07 1.15 1.21 1.25 1.28 1.30 1.27 1.23 1.18 1.11 1.08 1.03 0.95 0.79 0.67 0.64 0.66 0.71 0.77 0.75 0.73 0.75 0.75 0.81 0.92
0.03 0.04 0.18 0.38 0.39 0.43 0.28 0.39 0.79 0.71 0.54 0.53 0.61 0.62 0.57 0.56 0.57 0.66 0.68 0.69 0.75 0.80 0.78 0.78 0.83 0.94 0.95 0.91 0.94 0.95 0.94 0.89 0.83 0.83 0.81 0.78 0.72 0.62 0.55 0.53 0.56 0.63 0.69 0.66 0.63 0.63 0.73 0.85 0.93
0.03 0.05 0.15 0.28 0.28 0.36 0.33 0.65 1.09 0.75 0.57 0.59 0.58 0.51 0.46 0.45 0.46 0.55 0.62 0.65 0.65 0.63 0.64 0.66 0.69 0.72 0.70 0.67 0.68 0.69 0.72 0.71 0.67 0.67 0.60 0.57 0.58 0.58 0.57 0.52 0.53 0.54 0.59 0.58 0.61 0.61 0.68 0.80 0.87
0.05 0.04 0.06 0.16 0.16 0.19 0.36 0.65 0.75 0.51 0.45 0.51 0.51 0.46 0.48 0.48 0.45 0.44 0.45 0.49 0.49 0.46 0.46 0.51 0.60 0.64 0.66 0.65 0.63 0.59 0.59 0.57 0.52 0.48 0.46 0.45 0.47 0.50 0.57 0.56 0.57 0.59 0.63 0.65 0.71 0.76 0.84 0.98 1.04
0.06 0.06 0.09 0.12 0.12 0.16 0.26 0.53 0.65 0.50 0.43 0.33 0.27 0.21 0.21 0.23 0.23 0.22 0.22 0.23 0.24 0.27 0.34 0.41 0.45 0.46 0.49 0.51 0.53 0.53 0.49 0.44 0.38 0.35 0.36 0.35 0.37 0.41 0.49 0.56 0.57 0.59 0.60 0.64 0.74 0.93 1.09 1.18 1.23
0.06 0.05 0.06 0.06 0.07 0.12 0.20 0.38 0.31 0.32 0.29 0.26 0.20 0.14 0.13 0.11 0.12 0.16 0.18 0.21 0.23 0.27 0.34 0.42 0.44 0.44 0.46 0.45 0.45 0.45 0.43 0.40 0.35 0.30 0.29 0.30 0.33 0.36 0.40 0.46 0.50 0.53 0.56 0.59 0.68 0.82 1.00 1.11 1.14
0.06 0.05 0.05 0.07 0.06 0.08 0.13 0.24 0.15 0.18 0.18 0.17 0.17 0.14 0.14 0.15 0.15 0.17 0.17 0.23 0.28 0.28 0.29 0.35 0.39 0.44 0.53 0.61 0.69 0.70 0.62 0.53 0.44 0.35 0.30 0.29 0.32 0.35 0.36 0.37 0.39 0.41 0.45 0.51 0.61 0.74 0.85 0.93 0.96

GEFSSGP_prec_meanprecacc_090.txt.gz
Total_Precipitation_Accumulation
0.01 0.03 0.14 0.21 0.27 0.48 0.64 0.40 0.18 0.07 0.04 0.05 0.05 0.04 0.03 0.03 0.06 0.11 0.02 0.00 0.00 0.00 0.00 0.01 0.01 0.01 0.02 0.02 0.01 0.02 0.01 0.02 0.02 0.02 0.03 0.02 0.02 0.01 0.01 0.01 0.01 0.01 0.01 0.01 0.01 0.01 0.01 0.02 0.02
0.01 0.04 0.13 0.15 0.34 0.75 0.60 0.69 0.17 0.07 0.04 0.05 0.05 0.04 0.03 0.03 0.01 0.02 0.01 0.01 0.00 0.00 0.00 0.01 0.01 0.02 0.01 0.02 0.02 0.03 0.02 0.02 0.02 0.06 0.06 0.05 0.02 0.02 0.02 0.01 0.01 0.01 0.01 0.01 0.01 0.01 0.01 0.01 0.01
0.00 0.03 0.10 0.11 0.31 0.53 0.33 0.35 0.10 0.05 0.04 0.04 0.07 0.06 0.03 0.06 0.03 0.01 0.01 0.01 0.00 0.00 0.00 0.01 0.01 0.01 0.01 0.01 0.02 0.04 0.03 0.02 0.04 0.10 0.10 0.08 0.03 0.04 0.04 0.03 0.02 0.02 0.02 0.01 0.01 0.02 0.01 0.01 0.01
0.00 0.01 0.04 0.08 0.18 0.28 0.26 0.16 0.07 0.05 0.03 0.03 0.04 0.04 0.03 0.02 0.01 0.01 0.01 0.01 0.00 0.00 0.00 0.01 0.02 0.01 0.01 0.01 0.02 0.05 0.07 0.05 0.06 0.09 0.10 0.08 0.07 0.09 0.08 0.04 0.03 0.03 0.03 0.03 0.01 0.02 0.01 0.01 0.01
0.00 0.02 0.03 0.06 0.13 0.23 0.25 0.16 0.10 0.05 0.03 0.02 0.02 0.03 0.02 0.01 0.01 0.01 0.01 0.01 0.00 0.00 0.00 0.01 0.02 0.01 0.01 0.01 0.01 0.03 0.05 0.06 0.08 0.09 0.08 0.06 0.05 0.05 0.04 0.03 0.03 0.03 0.03 0.02 0.02 0.02 0.02 0.02 0.02
0.01 0.01 0.03 0.06 0.10 0.16 0.18 0.12 0.10 0.08 0.04 0.04 0.03 0.05 0.04 0.01 0.02 0.03 0.05 0.05 0.02 0.01 0.01 0.02 0.03 0.02 0.02 0.02 0.02 0.02 0.02 0.03 0.03 0.04 0.04 0.03 0.03 0.05 0.06 0.06 0.04 0.04 0.04 0.04 0.04 0.04 0.05 0.04 0.03
0.01 0.01 0.02 0.03 0.06 0.13 0.16 0.11 0.09 0.07 0.05 0.05 0.04 0.08 0.05 0.02 0.02 0.03 0.08 0.09 0.06 0.02 0.02 0.04 0.04 0.04 0.03 0.03 0.02 0.03 0.03 0.04 0.04 0.05 0.05 0.05 0.05 0.06 0.08 0.10 0.10 0.09 0.09 0.09 0.08 0.07 0.06 0.06 0.06
0.01 0.01 0.01 0.02 0.03 0.08 0.09 0.10 0.08 0.07 0.06 0.04 0.04 0.08 0.10 0.07 0.04 0.05 0.10 0.11 0.08 0.05 0.03 0.05 0.06 0.06 0.05 0.04 0.04 0.04 0.04 0.05 0.05 0.06 0.06 0.07 0.06 0.07 0.10 0.12 0.13 0.16 0.19 0.20 0.16 0.13 0.12 0.11 0.09
0.01 0.00 0.00 0.00 0.01 0.02 0.03 0.06 0.06 0.05 0.05 0.05 0.06 0.08 0.10 0.07 0.06 0.05 0.12 0.17 0.10 0.07 0.06 0.05 0.06 0.07 0.06 0.05 0.05 0.07 0.07 0.07 0.07 0.09 0.10 0.10 0.10 0.13 0.21 0.24 0.32 0.33 0.37 0.39 0.34 0.31 0.29 0.27 0.17
0.00 0.00 0.00 0.00 0.00 0.01 0.02 0.05 0.05 0.05 0.06 0.09 0.17 0.16 0.18 0.13 0.11 0.09 0.10 0.11 0.10 0.07 0.06 0.05 0.06 0.07 0.07 0.06 0.10 0.13 0.13 0.16 0.14 0.24 0.30 0.31 0.38 0.33 0.19 0.28 0.52 0.68 0.82 0.80 0.77 0.77 0.64 0.53 0.41
0.00 0.00 0.00 0.00 0.00 0.00 0.00 0.02 0.05 0.06 0.10 0.20 0.35 0.33 0.23 0.18 0.16 0.16 0.14 0.10 0.11 0.10 0.09 0.07 0.09 0.11 0.12 0.14 0.15 0.18 0.26 0.34 0.33 0.35 0.43 0.49 0.51 0.38 0.27 0.32 0.54 0.82 0.97 0.89 1.13 1.24 0.93 0.94 1.00
0.00 0.00 0.00 0.00 0.00 0.00 0.00 0.00 0.03 0.07 0.12 0.16 0.24 0.26 0.25 0.23 0.29 0.29 0.24 0.28 0.23 0.17 0.14 0.14 0.19 0.23 0.30 0.31 0.23 0.23 0.32 0.37 0.39 0.46 0.52 0.65 0.72 0.63 0.58 0.60 0.69 0.86 1.01 1.23 1.33 1.43 1.36 1.34 1.22
0.00 0.00 0.00 0.00 0.00 0.00 0.00 0.01 0.04 0.06 0.08 0.11 0.17 0.17 0.21 0.23 0.26 0.31 0.36 0.54 0.49 0.41 0.35 0.36 0.43 0.41 0.46 0.44 0.44 0.44 0.53 0.56 0.58 0.66 0.74 0.79 0.96 1.01 1.04 0.94 0.93 0.96 1.11 1.27 1.39 1.44 1.71 1.86 1.61
0.00 0.00 0.00 0.00 0.00 0.00 0.01 0.01 0.02 0.05 0.10 0.15 0.16 0.19 0.23 0.24 0.27 0.42 0.55 0.67 0.61 0.58 0.63 0.67 0.70 0.77 0.82 0.87 0.92 0.95 0.84 0.81 0.79 0.76 0.82 0.92 1.06 1.20 1.27 1.22 1.20 1.10 1.12 1.28 1.48 1.64 2.00 2.03 1.91
0.00 0.00 0.00 0.00 0.00 0.01 0.01 0.03 0.04 0.07 0.13 0.17 0.22 0.29 0.33 0.33 0.38 0.53 0.68 0.74 0.77 0.84 0.91 0.98 1.14 1.32 1.42 1.41 1.44 1.39 1.26 1.18 1.11 1.12 1.16 1.15 1.19 1.28 1.32 1.20 1.14 1.21 1.36 1.53 1.59 1.79 2.08 1.77 1.75
0.00 0.00 0.00 0.00 0.01 0.01 0.02 0.06 0.09 0.13 0.15 0.18 0.20 0.25 0.36 0.38 0.41 0.53 0.68 0.79 0.93 1.05 1.18 1.43 1.65 1.73 1.73 1.79 1.86 1.77 1.66 1.56 1.45 1.38 1.37 1.27 1.25 1.30 1.43 1.29 1.21 1.56 1.68 1.74 1.88 2.02 2.02 1.88 1.83
0.00 0.00 0.00 0.01 0.01 0.02 0.03 0.08 0.12 0.24 0.25 0.26 0.24 0.25 0.36 0.48 0.55 0.64 0.77 0.95 1.20 1.46 1.68 2.02 2.20 2.21 2.11 2.14 2.14 2.06 1.89 1.71 1.56 1.45 1.37 1.30 1.34 1.44 1.64 1.56 1.64 1.92 1.99 1.96 1.90 2.12 2.10 1.95 1.89
0.01 0.01 0.01 0.03 0.02 0.02 0.06 0.11 0.17 0.26 0.34 0.33 0.36 0.40 0.49 0.62 0.85 0.98 1.01 1.10 1.36 1.79 2.15 2.27 2.39 2.64 2.59 2.53 2.38 2.13 1.77 1.56 1.54 1.50 1.38 1.38 1.47 1.62 1.87 1.71 1.72 1.93 2.02 1.96 1.91 1.88 1.95 1.78 1.77
0.01 0.02 0.04 0.06 0.04 0.05 0.12 0.23 0.33 0.46 0.51 0.49 0.41 0.43 0.47 0.60 0.74 0.86 1.06 1.29 1.53 1.80 2.11 2.42 2.66 2.82 2.71 2.47 2.24 2.05 1.89 1.81 1.64 1.54 1.48 1.43 1.43 1.52 1.78 1.69 1.79 1.85 1.79 1.76 1.83 1.83 1.69 1.43 1.64
0.02 0.04 0.05 0.08 0.06 0.08 0.17 0.29 0.43 0.46 0.53 0.54 0.43 0.38 0.48 0.69 0.77 0.99 1.17 1.24 1.42 1.69 2.09 2.36 2.67 2.77 2.57 2.29 2.11 2.03 2.00 1.74 1.53 1.53 1.52 1.52 1.57 1.58 1.66 1.69 1.71 1.74 1.73 1.61 1.58 1.67 1.51 1.28 1.45
0.04 0.03 0.05 0.06 0.07 0.13 0.18 0.38 0.60 0.49 0.51 0.52 0.48 0.49 0.60 0.87 1.18 1.30 1.20 1.22 1.34 1.52 1.76 1.95 2.05 2.02 1.91 1.89 1.93 1.94 1.95 1.73 1.67 1.75 1.80 1.77 1.78 1.74 1.75 1.69 1.58 1.46 1.42 1.33 1.35 1.46 1.45 1.30 1.30
0.05 0.03 0.03 0.04 0.06 0.14 0.17 0.42 0.76 0.65 0.51 0.57 0.60 0.58 0.85 1.07 1.02 1.05 1.13 1.22 1.33 1.45 1.63 1.79 1.77 1.62 1.51 1.56 1.74 1.82 1.79 1.75 1.90 2.14 2.06 1.84 1.69 1.54 1.39 1.28 1.25 1.20 1.20 1.10 1.06 1.16 1.20 1.13 1.09
0.03 0.02 0.02 0.03 0.04 0.08 0.13 0.34 0.71 0.73 0.72 0.63 0.60 0.74 1.01 0.95 0.81 0.84 0.97 1.07 1.11 1.23 1.31 1.47 1.56 1.48 1.44 1.46 1.53 1.64 1.68 1.67 1.68 1.68 1.64 1.53 1.38 1.19 1.02 0.94 0.92 0.91 0.92 0.87 0.84 0.86 0.88 0.92 0.93
0.02 0.03 0.05 0.07 0.09 0.17 0.21 0.29 0.59 0.77 0.65 0.51 0.56 0.67 0.81 0.79 0.74 0.78 0.81 0.85 0.92 1.01 1.01 1.00 1.08 1.16 1.22 1.25 1.29 1.31 1.28 1.25 1.19 1.12 1.09 1.04 0.96 0.79 0.68 0.64 0.66 0.72 0.77 0.76 0.74 0.76 0.76 0.82 0.93
0.03 0.05 0.19 0.39 0.40 0.44 0.29 0.39 0.79 0.71 0.54 0.53 0.62 0.62 0.57 0.56 0.57 0.66 0.68 0.69 0.75 0.80 0.78 0.78 0.83 0.94 0.96 0.91 0.95 0.96 0.95 0.90 0.83 0.83 0.81 0.78 0.72 0.62 0.55 0.53 0.56 0.63 0.70 0.67 0.63 0.64 0.74 0.86 0.94
0.04 0.05 0.17 0.29 0.29 0.36 0.33 0.65 1.09 0.75 0.57 0.59 0.58 0.51 0.46 0.45 0.46 0.55 0.62 0.65 0.65 0.63 0.64 0.66 0.69 0.73 0.71 0.67 0.69 0.70 0.73 0.71 0.67 0.67 0.60 0.57 0.58 0.59 0.57 0.52 0.53 0.54 0.59 0.59 0.61 0.61 0.69 0.81 0.88
0.05 0.04 0.06 0.16 0.16 0.20 0.36 0.65 0.75 0.51 0.45 0.51 0.51 0.46 0.48 0.48 0.45 0.44 0.45 0.49 0.49 0.46 0.46 0.51 0.60 0.64 0.66 0.65 0.63 0.59 0.59 0.57 0.52 0.48 0.46 0.45 0.47 0.50 0.57 0.56 0.57 0.59 0.63 0.65 0.72 0.76 0.84 0.98 1.05
0.06 0.06 0.09 0.12 0.14 0.17 0.26 0.53 0.65 0.50 0.43 0.33 0.27 0.21 0.21 0.23 0.23 0.22 0.22 0.23 0.24 0.27 0.34 0.41 0.45 0.46 0.49 0.51 0.53 0.53 0.49 0.44 0.38 0.35 0.36 0.35 0.37 0.41 0.49 0.56 0.57 0.59 0.60 0.64 0.75 0.93 1.09 1.18 1.23
0.06 0.05 0.06 0.06 0.07 0.12 0.20 0.38 0.31 0.32 0.29 0.26 0.20 0.14 0.13 0.11 0.12 0.16 0.18 0.21 0.23 0.27 0.34 0.42 0.44 0.44 0.46 0.45 0.45 0.45 0.43 0.40 0.35 0.30 0.29 0.30 0.33 0.36 0.40 0.46 0.50 0.53 0.56 0.60 0.68 0.82 1.01 1.11 1.14
0.06 0.05 0.05 0.07 0.06 0.08 0.13 0.24 0.15 0.18 0.18 0.17 0.17 0.14 0.14 0.15 0.15 0.17 0.17 0.23 0.28 0.28 0.29 0.35 0.39 0.44 0.53 0.61 0.69 0.70 0.62 0.53 0.44 0.35 0.30 0.29 0.32 0.35 0.36 0.37 0.39 0.41 0.45 0.52 0.62 0.74 0.85 0.94 0.97

GEFSSGP_prec_meanprecacc_096.txt.gz
Total_Precipitation_Accumulation
0.01 0.03 0.14 0.22 0.30 0.57 0.78 0.50 0.21 0.07 0.05 0.05 0.06 0.05 0.06 0.05 0.10 0.20 0.05 0.01 0.01 0.00 0.00 0.01 0.01 0.01 0.02 0.03 0.03 0.05 0.06 0.06 0.05 0.05 0.05 0.04 0.04 0.02 0.02 0.01 0.01 0.02 0.02 0.02 0.02 0.03 0.03 0.03 0.02
0.01 0.04 0.14 0.17 0.40 0.87 0.76 0.79 0.18 0.07 0.04 0.05 0.05 0.05 0.05 0.05 0.02 0.03 0.01 0.01 0.01 0.00 0.00 0.01 0.01 0.02 0.02 0.02 0.03 0.05 0.05 0.05 0.06 0.09 0.09 0.07 0.03 0.02 0.02 0.02 0.01 0.02 0.02 0.02 0.02 0.02 0.01 0.02 0.02
0.00 0.04 0.11 0.14 0.35 0.58 0.37 0.37 0.11 0.05 0.04 0.04 0.07 0.07 0.04 0.07 0.04 0.02 0.01 0.01 0.01 0.01 0.00 0.01 0.01 0.02 0.01 0.02 0.04 0.06 0.06 0.06 0.08 0.13 0.13 0.10 0.05 0.05 0.05 0.04 0.02 0.02 0.03 0.02 0.01 0.02 0.02 0.01 0.01
0.00 0.02 0.06 0.10 0.21 0.31 0.27 0.17 0.07 0.05 0.03 0.03 0.04 0.06 0.08 0.04 0.02 0.02 0.02 0.01 0.02 0.02 0.01 0.01 0.02 0.02 0.02 0.02 0.04 0.08 0.10 0.08 0.09 0.12 0.12 0.11 0.08 0.11 0.09 0.05 0.03 0.04 0.04 0.03 0.02 0.02 0.02 0.01 0.01
0.01 0.03 0.05 0.08 0.16 0.26 0.26 0.17 0.11 0.06 0.04 0.04 0.03 0.07 0.08 0.03 0.03 0.03 0.03 0.04 0.05 0.05 0.02 0.01 0.02 0.02 0.02 0.02 0.03 0.05 0.08 0.09 0.10 0.11 0.10 0.07 0.05 0.05 0.05 0.04 0.04 0.04 0.04 0.04 0.03 0.03 0.03 0.02 0.02
0.01 0.02 0.05 0.08 0.12 0.19 0.19 0.12 0.10 0.10 0.10 0.06 0.04 0.09 0.08 0.04 0.03 0.04 0.07 0.10 0.08 0.06 0.03 0.03 0.03 0.03 0.03 0.03 0.03 0.03 0.04 0.05 0.05 0.06 0.05 0.04 0.03 0.05 0.07 0.06 0.05 0.05 0.05 0.05 0.05 0.05 0.05 0.05 0.04
0.01 0.01 0.03 0.05 0.07 0.15 0.16 0.11 0.09 0.08 0.07 0.06 0.05 0.13 0.18 0.17 0.07 0.03 0.09 0.13 0.09 0.06 0.04 0.05 0.05 0.05 0.04 0.04 0.03 0.04 0.04 0.05 0.05 0.05 0.05 0.05 0.05 0.06 0.08 0.11 0.10 0.10 0.10 0.11 0.10 0.09 0.07 0.07 0.07
0.01 0.01 0.01 0.02 0.03 0.08 0.09 0.10 0.08 0.07 0.07 0.05 0.05 0.11 0.29 0.23 0.08 0.06 0.11 0.12 0.09 0.06 0.05 0.06 0.07 0.07 0.06 0.05 0.05 0.05 0.06 0.05 0.06 0.06 0.07 0.07 0.06 0.07 0.11 0.13 0.14 0.17 0.21 0.22 0.18 0.15 0.14 0.12 0.10
0.01 0.00 0.00 0.00 0.01 0.02 0.03 0.06 0.06 0.05 0.07 0.09 0.07 0.10 0.24 0.16 0.08 0.06 0.13 0.18 0.11 0.08 0.07 0.06 0.07 0.09 0.09 0.08 0.08 0.08 0.09 0.08 0.08 0.11 0.11 0.11 0.13 0.19 0.26 0.28 0.36 0.36 0.40 0.41 0.37 0.35 0.33 0.30 0.19
0.00 0.00 0.00 0.00 0.00 0.01 0.02 0.05 0.05 0.05 0.10 0.21 0.23 0.20 0.23 0.16 0.14 0.12 0.14 0.14 0.13 0.09 0.09 0.09 0.12 0.12 0.12 0.13 0.18 0.20 0.19 0.23 0.20 0.33 0.39 0.40 0.49 0.45 0.28 0.37 0.58 0.72 0.84 0.83 0.81 0.81 0.68 0.56 0.46
0.00 0.00 0.00 0.00 0.00 0.00 0.00 0.02 0.05 0.07 0.22 0.41 0.48 0.42 0.26 0.21 0.21 0.24 0.24 0.20 0.18 0.15 0.15 0.16 0.16 0.18 0.19 0.24 0.26 0.27 0.37 0.48 0.46 0.49 0.56 0.63 0.64 0.50 0.37 0.46 0.68 0.93 1.06 1.00 1.27 1.35 1.00 1.04 1.14
0.00 0.00 0.00 0.00 0.00 0.00 0.00 0.01 0.03 0.08 0.19 0.28 0.33 0.37 0.29 0.28 0.41 0.43 0.33 0.39 0.30 0.24 0.24 0.27 0.25 0.30 0.40 0.44 0.34 0.32 0.43 0.52 0.56 0.63 0.67 0.78 0.87 0.77 0.72 0.76 0.85 1.03 1.18 1.41 1.51 1.62 1.52 1.51 1.48
0.00 0.00 0.00 0.00 0.00 0.00 0.00 0.01 0.05 0.12 0.14 0.18 0.25 0.32 0.32 0.33 0.43 0.50 0.47 0.69 0.58 0.49 0.46 0.45 0.51 0.51 0.58 0.56 0.56 0.53 0.63 0.67 0.71 0.79 0.88 0.93 1.13 1.18 1.21 1.10 1.10 1.12 1.27 1.44 1.57 1.65 1.95 2.08 1.79
0.00 0.00 0.00 0.00 0.00 0.00 0.02 0.04 0.07 0.12 0.13 0.19 0.23 0.36 0.46 0.46 0.54 0.57 0.63 0.76 0.68 0.67 0.77 0.76 0.78 0.87 0.93 1.00 1.05 1.06 0.94 0.92 0.91 0.91 0.97 1.06 1.23 1.41 1.49 1.40 1.37 1.26 1.30 1.47 1.68 1.85 2.23 2.24 2.08
0.00 0.01 0.02 0.01 0.01 0.02 0.05 0.14 0.17 0.16 0.16 0.21 0.27 0.42 0.55 0.65 0.71 0.76 0.81 0.82 0.81 0.93 1.03 1.10 1.23 1.41 1.51 1.50 1.54 1.50 1.39 1.31 1.23 1.25 1.29 1.27 1.31 1.42 1.45 1.33 1.28 1.35 1.50 1.65 1.73 1.93 2.22 1.91 1.89
0.01 0.06 0.05 0.03 0.02 0.02 0.07 0.29 0.29 0.24 0.22 0.24 0.26 0.32 0.49 0.60 0.72 0.77 0.84 0.91 1.02 1.15 1.31 1.56 1.75 1.81 1.81 1.88 1.95 1.87 1.75 1.65 1.54 1.49 1.52 1.41 1.35 1.38 1.51 1.37 1.29 1.64 1.76 1.83 1.97 2.11 2.11 1.99 1.94
0.01 0.02 0.03 0.04 0.03 0.02 0.07 0.24 0.28 0.31 0.36 0.37 0.33 0.35 0.46 0.59 0.70 0.81 0.92 1.11 1.33 1.60 1.85 2.18 2.32 2.31 2.19 2.20 2.21 2.16 1.99 1.79 1.65 1.56 1.52 1.39 1.40 1.49 1.69 1.61 1.69 1.97 2.03 2.01 1.95 2.19 2.18 2.03 1.99
0.01 0.01 0.03 0.05 0.03 0.03 0.13 0.28 0.27 0.33 0.46 0.44 0.47 0.50 0.58 0.70 0.93 1.06 1.11 1.26 1.49 1.90 2.26 2.36 2.49 2.80 2.73 2.62 2.46 2.22 1.86 1.63 1.59 1.57 1.44 1.44 1.52 1.65 1.90 1.74 1.75 1.96 2.05 1.98 1.95 1.92 2.00 1.83 1.83
0.01 0.03 0.05 0.07 0.05 0.06 0.15 0.30 0.38 0.49 0.59 0.60 0.51 0.57 0.58 0.68 0.81 0.93 1.14 1.37 1.61 1.87 2.17 2.49 2.74 2.89 2.79 2.56 2.31 2.11 1.94 1.85 1.66 1.57 1.50 1.46 1.46 1.55 1.80 1.71 1.81 1.86 1.81 1.79 1.85 1.86 1.72 1.47 1.69
0.03 0.05 0.07 0.10 0.07 0.08 0.21 0.37 0.49 0.48 0.56 0.60 0.51 0.48 0.57 0.77 0.83 1.06 1.21 1.30 1.47 1.74 2.13 2.40 2.71 2.81 2.61 2.33 2.16 2.07 2.03 1.76 1.54 1.54 1.53 1.53 1.58 1.59 1.67 1.71 1.72 1.76 1.74 1.63 1.60 1.69 1.54 1.31 1.49
0.04 0.05 0.07 0.07 0.08 0.15 0.23 0.52 0.73 0.54 0.53 0.55 0.53 0.53 0.64 0.92 1.23 1.32 1.22 1.24 1.35 1.54 1.78 1.98 2.07 2.05 1.94 1.91 1.95 1.97 1.97 1.74 1.69 1.77 1.81 1.78 1.79 1.76 1.76 1.70 1.59 1.47 1.42 1.34 1.36 1.47 1.46 1.32 1.32
0.06 0.04 0.03 0.04 0.08 0.22 0.24 0.58 0.93 0.72 0.54 0.59 0.63 0.60 0.88 1.10 1.04 1.06 1.14 1.22 1.34 1.46 1.63 1.80 1.79 1.65 1.53 1.58 1.77 1.84 1.81 1.76 1.91 2.15 2.07 1.85 1.69 1.56 1.40 1.28 1.26 1.22 1.21 1.11 1.06 1.17 1.22 1.15 1.10
0.04 0.03 0.03 0.03 0.06 0.16 0.22 0.42 0.84 0.81 0.79 0.68 0.63 0.76 1.04 0.99 0.83 0.85 0.98 1.08 1.11 1.23 1.32 1.48 1.58 1.50 1.45 1.47 1.54 1.66 1.69 1.69 1.69 1.69 1.65 1.54 1.38 1.19 1.02 0.94 0.94 0.93 0.93 0.88 0.85 0.87 0.89 0.93 0.94
0.02 0.03 0.07 0.09 0.16 0.33 0.26 0.32 0.67 0.85 0.71 0.55 0.58 0.67 0.82 0.81 0.75 0.79 0.82 0.86 0.93 1.01 1.02 1.00 1.11 1.18 1.23 1.27 1.30 1.33 1.30 1.27 1.21 1.14 1.11 1.05 0.96 0.80 0.68 0.65 0.68 0.73 0.79 0.77 0.75 0.77 0.77 0.83 0.94
0.04 0.06 0.26 0.51 0.62 0.60 0.31 0.40 0.81 0.72 0.54 0.53 0.62 0.62 0.57 0.56 0.57 0.66 0.68 0.69 0.75 0.80 0.78 0.79 0.85 0.97 0.97 0.93 0.96 0.98 0.96 0.91 0.85 0.85 0.82 0.79 0.73 0.62 0.56 0.54 0.56 0.64 0.70 0.68 0.64 0.65 0.74 0.87 0.96
0.05 0.06 0.21 0.38 0.42 0.46 0.36 0.67 1.10 0.75 0.57 0.59 0.58 0.51 0.46 0.45 0.46 0.55 0.62 0.66 0.65 0.63 0.64 0.67 0.70 0.75 0.72 0.68 0.70 0.70 0.73 0.72 0.68 0.68 0.60 0.57 0.58 0.59 0.57 0.52 0.53 0.55 0.59 0.59 0.62 0.62 0.69 0.81 0.89
0.06 0.04 0.07 0.17 0.18 0.24 0.39 0.67 0.76 0.51 0.45 0.51 0.51 0.46 0.48 0.48 0.45 0.45 0.46 0.50 0.49 0.46 0.46 0.51 0.60 0.65 0.66 0.66 0.63 0.59 0.59 0.57 0.52 0.49 0.47 0.45 0.47 0.50 0.57 0.56 0.57 0.59 0.63 0.66 0.72 0.77 0.85 0.99 1.06
0.06 0.06 0.09 0.12 0.16 0.22 0.31 0.56 0.67 0.50 0.43 0.33 0.27 0.21 0.21 0.23 0.23 0.22 0.22 0.23 0.24 0.27 0.34 0.41 0.45 0.46 0.49 0.51 0.53 0.53 0.49 0.44 0.38 0.35 0.36 0.36 0.37 0.41 0.49 0.57 0.58 0.60 0.61 0.65 0.76 0.94 1.10 1.20 1.24
0.06 0.06 0.06 0.06 0.08 0.16 0.31 0.45 0.33 0.32 0.29 0.26 0.20 0.14 0.13 0.11 0.12 0.16 0.18 0.21 0.23 0.27 0.34 0.42 0.44 0.44 0.46 0.45 0.45 0.45 0.43 0.40 0.35 0.30 0.30 0.30 0.33 0.37 0.40 0.47 0.51 0.53 0.57 0.60 0.69 0.83 1.02 1.13 1.16
0.06 0.05 0.05 0.07 0.06 0.08 0.17 0.28 0.16 0.18 0.18 0.17 0.17 0.14 0.14 0.15 0.15 0.17 0.17 0.23 0.28 0.28 0.29 0.35 0.39 0.44 0.53 0.61 0.69 0.70 0.62 0.53 0.44 0.35 0.30 0.30 0.32 0.35 0.36 0.37 0.40 0.41 0.46 0.52 0.63 0.75 0.86 0.95 0.98

GEFSSGP_prec_meanprecacc_102.txt.gz
Total_Precipitation_Accumulation
0.01 0.04 0.17 0.29 0.39 0.74 1.04 0.73 0.29 0.11 0.07 0.11 0.12 0.08 0.10 0.10 0.15 0.27 0.13 0.10 0.03 0.01 0.00 0.02 0.01 0.01 0.03 0.03 0.04 0.06 0.06 0.07 0.06 0.06 0.06 0.05 0.04 0.02 0.02 0.02 0.02 0.02 0.02 0.02 0.02 0.03 0.03 0.03 0.03
0.01 0.06 0.20 0.27 0.57 1.13 1.00 0.92 0.21 0.09 0.08 0.16 0.13 0.09 0.10 0.12 0.09 0.09 0.08 0.09 0.03 0.02 0.01 0.01 0.01 0.02 0.02 0.03 0.04 0.06 0.06 0.06 0.07 0.10 0.10 0.08 0.04 0.03 0.02 0.02 0.02 0.02 0.02 0.02 0.02 0.02 0.02 0.02 0.02
0.02 0.09 0.20 0.23 0.49 0.81 0.54 0.44 0.14 0.08 0.12 0.17 0.16 0.12 0.12 0.21 0.16 0.13 0.08 0.04 0.02 0.02 0.02 0.01 0.02 0.02 0.02 0.03 0.04 0.07 0.07 0.07 0.09 0.14 0.14 0.11 0.05 0.06 0.06 0.04 0.03 0.03 0.03 0.02 0.02 0.02 0.02 0.01 0.01
0.02 0.07 0.13 0.19 0.32 0.44 0.37 0.21 0.09 0.07 0.09 0.12 0.15 0.13 0.18 0.14 0.10 0.14 0.13 0.06 0.03 0.04 0.02 0.02 0.02 0.02 0.02 0.03 0.04 0.09 0.11 0.09 0.10 0.13 0.13 0.11 0.09 0.11 0.10 0.05 0.04 0.04 0.04 0.04 0.02 0.02 0.02 0.01 0.01
0.02 0.06 0.09 0.12 0.20 0.31 0.31 0.20 0.12 0.07 0.07 0.11 0.13 0.17 0.21 0.12 0.12 0.18 0.19 0.09 0.08 0.06 0.03 0.02 0.03 0.03 0.03 0.03 0.03 0.06 0.09 0.10 0.12 0.13 0.10 0.08 0.06 0.06 0.06 0.04 0.04 0.04 0.04 0.04 0.03 0.03 0.03 0.02 0.02
0.03 0.04 0.07 0.09 0.13 0.21 0.21 0.14 0.11 0.10 0.13 0.13 0.15 0.29 0.31 0.23 0.18 0.19 0.22 0.15 0.10 0.07 0.04 0.04 0.04 0.04 0.04 0.03 0.03 0.04 0.05 0.06 0.06 0.07 0.06 0.05 0.04 0.06 0.07 0.06 0.05 0.05 0.05 0.05 0.05 0.05 0.05 0.05 0.04
0.02 0.02 0.03 0.05 0.07 0.15 0.16 0.12 0.11 0.09 0.10 0.14 0.19 0.37 0.46 0.47 0.31 0.22 0.23 0.20 0.12 0.06 0.04 0.06 0.05 0.05 0.05 0.05 0.04 0.04 0.05 0.06 0.06 0.06 0.06 0.06 0.06 0.07 0.09 0.11 0.11 0.10 0.11 0.11 0.11 0.09 0.07 0.07 0.07
0.01 0.01 0.01 0.02 0.03 0.08 0.10 0.10 0.09 0.09 0.09 0.12 0.18 0.30 0.47 0.43 0.25 0.24 0.31 0.27 0.16 0.09 0.06 0.07 0.07 0.07 0.07 0.06 0.06 0.06 0.07 0.07 0.07 0.08 0.08 0.08 0.08 0.09 0.13 0.14 0.15 0.18 0.22 0.23 0.18 0.16 0.14 0.13 0.10
0.01 0.00 0.00 0.00 0.01 0.02 0.03 0.06 0.06 0.07 0.10 0.16 0.21 0.34 0.46 0.32 0.26 0.28 0.53 0.43 0.24 0.14 0.10 0.08 0.08 0.09 0.10 0.09 0.09 0.10 0.10 0.10 0.10 0.13 0.14 0.14 0.16 0.23 0.30 0.32 0.39 0.39 0.41 0.43 0.39 0.36 0.35 0.32 0.20
0.00 0.00 0.00 0.00 0.00 0.01 0.02 0.05 0.05 0.06 0.14 0.40 0.54 0.56 0.55 0.42 0.41 0.43 0.58 0.44 0.28 0.21 0.15 0.14 0.14 0.14 0.15 0.16 0.21 0.23 0.23 0.26 0.23 0.36 0.43 0.44 0.54 0.51 0.35 0.45 0.68 0.80 0.89 0.86 0.84 0.84 0.70 0.58 0.48
0.00 0.00 0.00 0.00 0.00 0.00 0.01 0.03 0.06 0.09 0.31 0.64 0.71 0.62 0.53 0.51 0.48 0.51 0.64 0.60 0.37 0.28 0.24 0.26 0.25 0.25 0.24 0.31 0.31 0.35 0.46 0.57 0.54 0.58 0.65 0.71 0.73 0.60 0.48 0.57 0.79 1.03 1.15 1.06 1.33 1.40 1.03 1.07 1.19
0.00 0.00 0.00 0.00 0.00 0.00 0.00 0.01 0.05 0.16 0.35 0.42 0.49 0.57 0.57 0.53 0.67 0.68 0.62 0.72 0.53 0.37 0.35 0.51 0.44 0.44 0.51 0.58 0.43 0.44 0.52 0.61 0.67 0.80 0.84 0.90 0.98 0.90 0.87 0.90 0.96 1.13 1.29 1.51 1.61 1.72 1.60 1.58 1.56
0.00 0.00 0.00 0.00 0.00 0.00 0.01 0.03 0.11 0.24 0.31 0.33 0.49 0.65 0.68 0.61 0.69 0.73 0.70 0.92 0.76 0.65 0.61 0.64 0.68 0.72 0.79 0.70 0.69 0.65 0.73 0.78 0.82 0.89 1.01 1.04 1.23 1.30 1.32 1.22 1.19 1.19 1.34 1.51 1.65 1.74 2.03 2.17 1.89
0.00 0.00 0.00 0.00 0.00 0.01 0.04 0.07 0.16 0.28 0.38 0.45 0.54 0.69 0.78 0.79 0.82 0.82 0.92 1.09 0.93 0.87 0.95 0.89 0.91 1.03 1.12 1.15 1.19 1.18 1.04 1.03 1.02 1.00 1.06 1.13 1.29 1.47 1.55 1.47 1.44 1.33 1.36 1.52 1.72 1.89 2.28 2.29 2.15
0.00 0.01 0.02 0.01 0.01 0.03 0.06 0.18 0.27 0.39 0.47 0.53 0.60 0.69 0.83 1.07 1.10 1.10 1.12 1.13 1.05 1.14 1.20 1.24 1.35 1.53 1.62 1.60 1.64 1.60 1.45 1.36 1.29 1.29 1.34 1.33 1.37 1.49 1.52 1.38 1.33 1.38 1.53 1.68 1.76 1.97 2.26 1.96 1.93
0.01 0.06 0.06 0.05 0.03 0.03 0.09 0.33 0.38 0.43 0.46 0.56 0.68 0.69 0.77 0.95 1.13 1.16 1.21 1.19 1.23 1.38 1.51 1.73 1.87 1.91 1.91 1.98 2.04 1.95 1.82 1.70 1.58 1.52 1.56 1.46 1.40 1.44 1.56 1.40 1.31 1.66 1.79 1.85 2.00 2.15 2.15 2.04 1.98
0.02 0.04 0.04 0.06 0.04 0.03 0.08 0.29 0.36 0.47 0.65 0.75 0.90 0.87 0.75 0.85 1.11 1.21 1.27 1.41 1.54 1.78 2.05 2.35 2.43 2.41 2.31 2.31 2.28 2.20 2.03 1.83 1.67 1.57 1.54 1.41 1.42 1.51 1.72 1.64 1.71 1.99 2.06 2.03 1.97 2.22 2.21 2.06 2.02
0.02 0.03 0.05 0.07 0.05 0.04 0.15 0.36 0.39 0.50 0.75 0.75 0.92 0.94 0.90 0.92 1.18 1.40 1.45 1.52 1.70 2.04 2.37 2.45 2.56 2.84 2.79 2.66 2.48 2.23 1.88 1.64 1.61 1.58 1.45 1.46 1.54 1.67 1.92 1.77 1.78 1.97 2.06 2.00 1.96 1.93 2.01 1.84 1.84
0.02 0.04 0.07 0.08 0.06 0.07 0.19 0.42 0.58 0.69 0.89 0.87 0.79 0.84 0.85 0.88 0.96 1.12 1.35 1.56 1.75 1.98 2.27 2.55 2.78 2.92 2.81 2.58 2.34 2.13 1.95 1.86 1.67 1.57 1.52 1.49 1.49 1.57 1.82 1.72 1.82 1.88 1.83 1.80 1.87 1.87 1.73 1.47 1.70
0.03 0.06 0.08 0.11 0.09 0.11 0.27 0.47 0.70 0.70 0.76 0.79 0.68 0.66 0.71 0.90 0.95 1.17 1.31 1.40 1.55 1.82 2.20 2.46 2.75 2.84 2.63 2.36 2.18 2.08 2.04 1.77 1.55 1.55 1.54 1.56 1.63 1.62 1.70 1.73 1.73 1.76 1.75 1.64 1.61 1.70 1.55 1.31 1.49
0.05 0.06 0.08 0.08 0.10 0.17 0.28 0.63 0.85 0.68 0.65 0.68 0.67 0.67 0.75 1.00 1.30 1.43 1.31 1.31 1.41 1.59 1.82 2.01 2.11 2.07 1.96 1.93 1.98 1.98 1.98 1.75 1.70 1.78 1.82 1.80 1.81 1.78 1.77 1.71 1.60 1.47 1.42 1.34 1.37 1.47 1.47 1.32 1.33
0.07 0.05 0.05 0.05 0.10 0.26 0.29 0.67 1.04 0.84 0.65 0.73 0.78 0.71 0.96 1.19 1.12 1.15 1.22 1.29 1.38 1.49 1.67 1.83 1.82 1.67 1.55 1.59 1.77 1.85 1.81 1.77 1.92 2.15 2.08 1.86 1.70 1.57 1.41 1.28 1.26 1.22 1.21 1.11 1.07 1.17 1.22 1.15 1.10
0.05 0.04 0.05 0.05 0.09 0.21 0.27 0.47 0.90 0.90 0.90 0.81 0.76 0.84 1.10 1.07 0.94 0.92 1.03 1.12 1.13 1.25 1.38 1.53 1.61 1.53 1.48 1.49 1.55 1.66 1.70 1.70 1.70 1.70 1.66 1.55 1.38 1.20 1.03 0.94 0.94 0.93 0.93 0.88 0.85 0.87 0.89 0.93 0.94
0.04 0.05 0.10 0.13 0.20 0.39 0.30 0.37 0.73 0.90 0.75 0.63 0.69 0.74 0.87 0.88 0.81 0.83 0.85 0.89 0.94 1.03 1.04 1.02 1.13 1.20 1.24 1.27 1.31 1.33 1.31 1.28 1.22 1.14 1.12 1.05 0.96 0.80 0.68 0.65 0.68 0.73 0.79 0.77 0.75 0.77 0.77 0.83 0.94
0.04 0.08 0.31 0.56 0.69 0.68 0.35 0.44 0.84 0.73 0.55 0.56 0.70 0.68 0.61 0.59 0.59 0.68 0.69 0.71 0.76 0.81 0.79 0.79 0.87 0.98 0.98 0.93 0.96 0.99 0.96 0.91 0.85 0.85 0.82 0.79 0.73 0.63 0.56 0.54 0.57 0.64 0.70 0.68 0.64 0.65 0.74 0.87 0.96
0.06 0.08 0.24 0.42 0.47 0.52 0.43 0.73 1.13 0.76 0.58 0.62 0.63 0.56 0.49 0.48 0.47 0.56 0.63 0.67 0.66 0.63 0.65 0.67 0.71 0.76 0.73 0.69 0.70 0.70 0.73 0.72 0.68 0.68 0.60 0.57 0.58 0.59 0.57 0.52 0.53 0.55 0.59 0.59 0.62 0.62 0.69 0.82 0.89
0.06 0.05 0.09 0.20 0.23 0.32 0.50 0.76 0.82 0.53 0.47 0.53 0.52 0.47 0.49 0.49 0.46 0.45 0.47 0.51 0.49 0.46 0.47 0.52 0.61 0.65 0.67 0.66 0.64 0.59 0.59 0.57 0.52 0.49 0.47 0.45 0.47 0.50 0.57 0.56 0.57 0.59 0.63 0.66 0.72 0.77 0.85 0.99 1.06
0.07 0.07 0.10 0.15 0.21 0.30 0.41 0.66 0.72 0.54 0.44 0.33 0.27 0.21 0.22 0.23 0.24 0.22 0.23 0.24 0.24 0.28 0.34 0.42 0.45 0.46 0.49 0.51 0.54 0.53 0.49 0.44 0.38 0.35 0.36 0.36 0.37 0.41 0.49 0.57 0.58 0.60 0.61 0.65 0.76 0.94 1.10 1.20 1.24
0.09 0.07 0.07 0.07 0.11 0.21 0.40 0.52 0.36 0.33 0.30 0.26 0.20 0.14 0.13 0.11 0.13 0.17 0.18 0.21 0.23 0.27 0.34 0.42 0.44 0.44 0.46 0.45 0.45 0.45 0.43 0.40 0.35 0.30 0.30 0.30 0.33 0.37 0.40 0.47 0.51 0.53 0.57 0.61 0.70 0.83 1.02 1.13 1.16
0.09 0.07 0.06 0.09 0.09 0.12 0.22 0.31 0.17 0.19 0.19 0.18 0.17 0.15 0.15 0.16 0.15 0.17 0.17 0.23 0.28 0.28 0.29 0.35 0.39 0.44 0.53 0.61 0.69 0.70 0.62 0.53 0.44 0.35 0.30 0.30 0.32 0.35 0.37 0.37 0.40 0.41 0.46 0.52 0.63 0.75 0.86 0.95 0.98